Regional Weather Roundup
Issued by NWS Wakefield, VA

Current Version | Previous Version | Text Only | Print | Product List | Glossary Off
Versions: 1 2 3 4 5 6 7 8 9 10 11 12 13 14 15 16 17 18 19 20 21 22 23 24 25 26 27 28 29 30 31 32 33 34 35 36 37 38 39 40 41 42 43 44 45 46 47 48 49 50

000
ASUS41 KAKQ 300914
RWRAKQ

REGIONAL WEATHER ROUNDUP
NATIONAL WEATHER SERVICE WAKEFIELD VA
500 AM EDT MON MAR 30 2015

Note: "fair" indicates few or no clouds below 12,000 feet with no
significant weather and/or obstructions to visibility. * = Denotes
station may not report precipitation (e.g., rain,snow,etc.),
thunder or fog.

VAZ042-051-052>054-056-301000-
NORTHERN VIRGINIA

CITY           SKY/WX    TMP DP  RH WIND       PRES   REMARKS
WASH NATIONAL  FLURRIES  43  27  53 S14       30.00F
DULLES         CLOUDY    42  20  41 S10       29.96F
FORT BELVOIR   CLOUDY    43  22  43 SE7       29.98F
QUANTICO       CLOUDY    46  24  42 S10       30.01F
FREDERICKSBRG* CLOUDY    47  17  30 S8        30.00F
STAFFORD*      CLOUDY    45  13  27 S6        30.02F
WARRENTON      CLOUDY    45  25  44 S9        29.95F
CULPEPER*      CLOUDY    46  18  31 S8        29.97F
MANASSAS*      CLOUDY    43  21  42 S7        29.97F
LEESBURG*      CLOUDY    43  23  45 S8        29.96F
WINCHESTER     CLOUDY    41  10  28 SE3       29.91F
FRONT ROYAL*   PTSUNNY   45  16  31 SW3       29.91F
LURAY*         CLOUDY    46  21  36 SW8       29.92F
$$

VAZ048-049-060>072-079>083-301000-
CENTRAL AND SOUTH CENTRAL VIRGINIA

CITY           SKY/WX    TMP DP  RH WIND       PRES   REMARKS
RICHMOND       CLOUDY    44  17  33 S14       30.04F
CHESTERFIELD*  NOT AVBL
PETERSBURG*    CLOUDY    43  17  34 S5        30.06F
HANOVER        CLOUDY    45  16  31 S12G21    30.04F
TAPPAHANNOCK*  CLOUDY    44  11  26 S10       30.04F
QUINTON*       CLOUDY    45  18  33 S7        30.05F
CHARLOTTSVILLE MOCLDY    44  16  32 S10       29.96F
GORDONSVILLE*  CLOUDY    44  18  35 SW10      29.97F
ORANGE*        CLOUDY    45  18  33 S9        29.98F
LOUISA*        CLOUDY    45  18  33 SW5       29.98F
BUMPASS*       CLOUDY    44  17  33 S7        30.01F
FARMVILLE*     CLOUDY    46  17  32 S9        30.01F
CREWE*         CLOUDY    44  15  30 MISG      30.04S
FORT PICKETT*  CLOUDY    43  18  36 SW16      30.04F
CHASE CITY*    CLOUDY    46  20  37 S5        30.05F
CLARKSVILLE*   CLOUDY    43  19  39 SW13      30.06F
SOUTH HILL*    CLOUDY    41  19  41 S12       30.12F
LAWRENCEVILLE* CLOUDY    42  19  39 SW9       30.07F
EMPORIA*       CLOUDY    41  19  42 S8        30.11F
$$

VAZ088>098-301000-
SOUTHEAST VIRGINIA

CITY           SKY/WX    TMP DP  RH WIND       PRES   REMARKS
NORFOLK        PTCLDY    41  19  41 S18       30.10F
VIRGINIA BEACH MOCLDY    43  23  45 S10       30.11F
NORFOLK NAVAL  NOT AVBL
WEST POINT*    CLOUDY    46  15  28 S9G16     30.08F
SALUDA*        PTSUNNY   42  18  38 SW9G20    30.05F
NEWPORT NEWS   NOT AVBL
LANGLEY AFB    MOCLDY    41  19  40 SW13G20   30.08F
FORT EUSTIS    PTCLDY    42  22  45 SW10G20   30.07F
WILLIAMSBURG*  FAIR      45  21  39 SW7       30.10S
HR EXEC AP*    FAIR      37  21  52 S7        30.12F
FRANKLIN*      PTCLDY    38  20  48 S12       30.11F
WAKEFIELD      NOT AVBL
$$

VAZ020-022-025-037-045-301000-
WEST CENTRAL AND SOUTHWEST VIRGINIA

CITY           SKY/WX    TMP DP  RH WIND       PRES   REMARKS
STAUNTON*      CLOUDY    44  15  31 S7        29.95F
WAYNESBORO*    CLOUDY    43  15  32 SW3       29.95F
HOT SPRINGS VA CLOUDY    33  27  78 W20G28    29.89F WCI  22
LYNCHBURG      CLOUDY    43  20  39 S6        30.02F
DANVILLE       MOCLDY    46  19  34 VRB6      30.06F
SOUTH BOSTON*  CLOUDY    46  15  29 SW12G20   30.05F
MARTINSVILLE   CLOUDY    45  18  33 W3        30.06F
ROANOKE        CLOUDY    44  24  45 W6        30.02F
BLACKSBURG     RAIN      38  28  65 W3        30.01F
DUBLIN*        LGT RAIN  44  39  83 W7        30.01F
MARION*        RAIN      40  30  68 SW10      30.02F
HILLSVILLE*    CLOUDY    42  27  55 W10G16    30.00F
RICHLANDS*     RAIN      41  16  36 SW9G16    29.99F
WISE*          CLOUDY    43  36  75 SW13G23   30.00F
ABINGDON*      CLOUDY    42  36  78 CALM      30.02F
$$

MDZ021>025-VAZ099-100-301000-
SOUTHERN MARYLAND AND THE DELMARVA PENINSULA

CITY           SKY/WX    TMP DP  RH WIND       PRES   REMARKS
PATUXENT RIVER CLOUDY    43  17  35 SW13      30.03F
BAY BRIDGE APT   N/A     41  21  45 S12G18    30.02S
LEONARDTOWN    CLOUDY    43  18  36 SW9       30.05S
DOVER          CLOUDY    37  28  72 S10       30.01F
GEORGETOWN     CLOUDY    38  24  57 S9        30.05F
EASTON         CLOUDY    43  28  54 SW13G18   30.05F
CAMBRIDGE      CLOUDY    43  27  52 S9        30.02F
SALISBURY      CLOUDY    39  25  57 S8        30.04F
OCEAN CITY     CLOUDY    41  31  67 SW12G21   30.07F
WALLOPS ISLAND CLOUDY    40  31  70 SW16      30.07F
ACCOMACK*      MOCLDY    41  21  45 S10       30.07F
$$

NCZ012>017-030>032-301000-
NORTH CENTRAL AND EASTERN NORTH CAROLINA

CITY           SKY/WX    TMP DP  RH WIND       PRES   REMARKS
ROANOKE RAPIDS CLOUDY    37  23  56 S10       30.12F
RALEIGH        MOCLDY    42  22  44 SW15      30.11F
ELIZABETH CITY PTCLDY    41  29  62 S12       30.15F
AHOSKIE*       MOCLDY    38  21  51 S6        30.13F
EDENTON*       PTCLDY    40  31  70 S8        30.16F
CURRITUCK*     PTCLDY    42  25  50 S8        30.16F
KILL DEVIL HLS PTCLDY    41  30  64 SW6       30.16F
MANTEO         PTCLDY    41  30  65 SW12      30.18F
CAPE HATTERAS  CLEAR     46  26  45 W12G20    30.20F
TARBORO*       CLOUDY    40  25  55 S6        30.16F
GOLDSBORO      CLEAR     40  38  92 S8        30.15F
WASHINGTON     CLEAR     37  26  65 SW6       30.18F
GREENVILLE     PTCLDY    37  28  70 SW8       30.17F
NEW BERN       CLEAR     38  26  62 S6        30.20F
WILMINGTON     CLEAR     33  30  88 S3        30.20F
$$

VAZ048-301000-
ELSEWHERE

CITY           SKY/WX    TMP DP  RH WIND       PRES   REMARKS
HARRISBURG PA  CLOUDY    37  27  67 S7        29.92F
BALTIMORE      LGTSLEET  38  25  59 S5        29.98F
ANNAPOLIS      LGT RAIN  40  24  53 S6        30.00F
ANDREWS AFB    LGT RAIN  39  23  51 S12       29.99F
PHILADELPHIA   CLOUDY    35  30  82 S13       30.01F
HENDERSON NC   CLOUDY    43  14  31 S20       30.08F
GREENSBORO     PTCLDY    42  18  37 SW10      30.05F
ROCKY MOUNT    PTCLDY    40  25  55 S10       30.14F
$$

VAZ100-301000-
MARINE

STATION/POSITION TIME  TEMP    WIND        PRES    WAVE   SWELL
                       AIR SEA DIR/SP/G            HT/PER HT/PER
                 (UTC) (F)     (DEG/KT/KT) (MB)    (FT/S) (FT/S)
BRANDYWINE LGT   0800   38 39  220/ 18/ 20 1018.7S
CAPE MAY NJ      0800   39 42  210/  9/ 13 1018.3F
LEWES DE         0800   39 42  220/  6/ 10 1018.7F
15NM E FENWICK I 0850   40 39              1018.3F   4/ 4
OCEAN-CITY-INLET 0800   40 40  220/ 15/ 18 1019.0F
WACHAPREAGUE VA  0800   41 43  230/  8/ 12 1019.7F
THOMAS POINT MD  0900                        N/A
COVE POINT MD    0800   42     200/ 12/ 13 1017.1F
SOLOMONS ISLAND  0800      43                N/A
BISHOPS HEAD MD  0812          190/ 17/ 19 1017.0F
PINEY POINT MD   0800          190/  8/ 10   N/A
CAMBRIDGE MD     0800   41 43  180/  8/ 13 1017.2F
LEWISETTA VA     0800   43 42              1016.7F
RAPPAHANNOCK LGT 0800          190/ 20/ 22 1019.6F
STINGRAY PT      0900   44 43  200/ 16/ 19   N/A     2/ 3
YORK RVR RNG VA  0800   44     220/ 19/ 22 1018.7F
YORKTOWN VA      0800   43 45  200/ 12/ 16 1019.1F
DOMINION TERM VA 0800   42     210/ 15/ 17 1020.2F
KIPTOPEKE VA     0800      47  200/ 16/ 19   N/A
CHES BAY BRIDGE  0800   41 42  180/ 16/ 20 1019.7F
CAPE HENRY VA    0800   41     190/ 10/ 15 1019.2F
CHESAPEAKE LGHT  0800   42     200/ 19/ 20 1021.1F
WILLOUBY STN VA  0800   42     210/ 23/ 27 1020.1F
S CRANEY ISL VA  0800          180/ 12/ 17 1020.5F
CAPE HENRY BUOY  0828      40                N/A     3/10   2/11
1ST LANDING BUOY 0900   41     200/ 17/ 21 1018.8F   1/ 3
OFFSHORE WE BUOY 0811      41                N/A     4/10   3/10
64NM E OF VA BCH 0850   46 52  220/ 19/ 23 1020.8F   5/10   3/10
DUCK PIER NC     0800   43 42  200/ 11/ 14 1021.0F
44056 DUCK FRF   0811      42                N/A     3/10   2/11
OREGON INLET NC  0800   45 45  220/ 15/ 17 1022.5F
HATTERAS NC      0800   45 50  240/  6/ 12 1023.3F
CAPE LOOKOUT NC  0900   49     230/  9/ 12 1022.5F
$$



USA.gov is the U.S. government's official web portal to all federal, state and local government web resources and services.